User: anonymous
Location: Plymouth
(43.7570°N, 71.6890°W)
Time: 04:24:59
(UTC-04:00)
Language:

Meteor 1-28 Rocket - Orbit

View from above orbital plane
View from above orbital plane
View from above satellite
View from above satellite

Ground track
Ground track

The orbit data is extracted from the following two-line orbital elements,

1 10114U 77057B   14114.17502959  .00003424  00000-0  19608-3 0  2298
2 10114 097.2793 336.9303 0015392 015.6932 344.4773 15.13166976  9397
Epoch (UTC): 24 April 2014 04:12:02
Eccentricity: 0.0015392
inclination: 97.2793°
perigee height: 516 km
apogee height: 537 km
right ascension of ascending node: 336.9303°
argument of perigee: 15.6932°
revolutions per day: 15.13166976
mean anomaly at epoch: 344.4773°
orbit number at epoch: 939

The dashed part of the orbit path shows where the satellite is in the earth's shadow,  

DLR